Regional Weather Roundup
Issued by NWS San Angelo, TX

Home | Current Version | Previous Version | Text Only | Print | Product List | Glossary On
Versions: 1 2 3 4 5 6 7 8 9 10 11 12 13 14 15 16 17 18 19 20 21 22 23 24 25 26 27 28 29 30 31 32 33 34 35 36 37 38 39 40 41 42 43 44 45 46 47 48 49 50
000
ASUS44 KSJT 011210
RWRSJT
WEST CENTRAL TEXAS REGIONAL WEATHER ROUNDUP
NATIONAL WEATHER SERVICE SAN ANGELO TX
700 AM CDT MON SEP 01 2014

NOTE: "FAIR" INDICATES FEW OR NO CLOUDS BELOW 12,000 FEET WITH NO
SIGNIFICANT WEATHER AND/OR OBSTRUCTIONS TO VISIBILITY.

TXZ049-054-064>066-071>073-076>078-098-099-113-114-127-128-139-140-
154-155-168>170-011300
...LOCATIONS ACROSS WEST CENTRAL TEXAS...

CITY           SKY/WX    TMP DP  RH WIND       PRES   REMARKS
SAN ANGELO     CLEAR     76  69  79 S15G23    29.91R
ABILENE        CLEAR     77  69  76 S15G24    29.88R
DYESS AFB      CLEAR     76  69  79 S15       29.87R
JUNCTION       CLEAR     74  68  81 S6        29.95R
SWEETWATER     CLEAR     76  68  77 S20G25    29.92S
BROWNWOOD      PTCLDY    75  68  78 S9        29.93R
COLEMAN        SUNNY     74  67  78 S10       29.92S
SONORA         CLEAR     75  70  83 S10       29.99R
OZONA          PTSUNNY   75  68  78 S10G16    29.97R
BRADY          CLEAR     73  68  83 S9        29.94R
$$

TEXAS PANHANDLE/OKLAHOMA PANHANDLE

CITY           SKY/WX    TMP DP  RH WIND       PRES   REMARKS
AMARILLO       CLEAR     70  57  63 W7        29.91R
BORGER         CLEAR     67  58  72 CALM      29.89R
CANADIAN       CLEAR     67  63  88 SW6       29.83R
DALHART        CLEAR     61  54  77 N10       29.97R
DUMAS          SUNNY     59  56  89 N7        29.93R
GUYMON         NOT AVBL
HEREFORD       SUNNY     66  59  79 W6        29.93R
PAMPA          SUNNY     63  55  77 W7        29.89S
PERRYTON       CLEAR     64  60  88 NW10      29.87R
$$

SOUTHERN PANHANDLE/SOUTH PLAINS/ROLLING PLAINS

CITY           SKY/WX    TMP DP  RH WIND       PRES   REMARKS
LUBBOCK        PTCLDY    76  61  59 SW17G28   29.90R
SNYDER         CLEAR     75  67  76 S14       29.90S
CHILDRESS      CLEAR     74  65  73 SE7       29.83R
SEMINOLE       SUNNY     73  61  64 S7        29.94R
$$

PERMIAN BASIN

CITY           SKY/WX    TMP DP  RH WIND       PRES   REMARKS
MIDLAND        CLEAR     78  63  59 S14       29.91S
ODESSA         CLEAR     78  62  57 S15       29.93R
WINK           CLEAR     78  63  59 SE9       29.88R
$$

FAR WEST/SOUTHWEST MOUNTAINS/TRANS PECOS

CITY           SKY/WX    TMP DP  RH WIND       PRES   REMARKS
ALPINE         SUNNY     71  57  61 SW6       30.09S
DRYDEN           N/A     80  65  59 E8        29.91R
EL PASO        CLEAR     76  42  29 S5        29.97R
FORT STOCKTON  CLEAR     75  62  64 S13       29.92S
GUADALUPE PASS CLEAR     71  44  37 SW10      30.10R
MARFA          CLEAR     59  54  82 N6        30.10R
PECOS          SUNNY     69  58  67 E7        29.88R
$$

DALLAS/FORT WORTH METROPLEX

CITY           SKY/WX    TMP DP  RH WIND       PRES   REMARKS
DFW AIRPORT    PTCLDY    78  71  79 S16       29.89R
FTW MEACHAM    PTCLDY    78  72  81 S15       29.88R
DAL-EXECUTIVE  CLEAR     79  71  76 S12G23    29.90S
GRAND PRAIRIE  CLEAR     77  70  78 MISG      29.91R
ADDISON        MOCLDY    77  70  78 S12G22    29.91S
MESQUITE       PTSUNNY   75  72  88 SE10      29.91F
LANCASTER      MOSUNNY   76  70  82 S9        29.92S
$$

NORTH CENTRAL TEXAS

CITY           SKY/WX    TMP DP  RH WIND       PRES   REMARKS
SHRMAN/DENISON SUNNY     76  70  81 S14       29.91R
GAINESVILLE    CLEAR     74  70  86 S9        29.91R
BRIDGEPORT     SUNNY     77  68  74 S6        29.90R
DENTON         CLEAR     76  71  85 S13       29.89R
WAXAHACHIE     SUNNY     76  70  82 S9        29.93R
GRANBURY       SUNNY     79  71  77 SE14      29.90S
$$

WESTERN NORTH TEXAS

CITY           SKY/WX    TMP DP  RH WIND       PRES   REMARKS
WICHITA FALLS  CLEAR     78  70  76 S16       29.83R
VERNON         SUNNY     79  67  68 S13       29.82S
BRECKENRIDGE   SUNNY     79  69  71 S15G21    29.88R
COMANCHE         N/A     75  68  80 S15G22    29.92R
$$

CENTRAL AND SOUTH CENTRAL TEXAS

CITY           SKY/WX    TMP DP  RH WIND       PRES   REMARKS
AUSTIN/BERGSTM PTCLDY    77  75  93 S7        29.93S
WACO           MOCLDY    77  73  87 S13       29.93R
HILLSBORO      SUNNY     76  71  85 SE14      29.93R
TEMPLE         CLEAR     75  70  83 SE10      29.93S
KILLEEN-GRAY   PTCLDY    75  72  88 S9        29.94R
FORT HOOD      PTCLDY    79  73  82 SE8       29.94R
GEORGETOWN     CLOUDY    79  73  83 S8        29.96R
LAGO VISTA     CLOUDY    77  73  88 S5        29.96S
SAN MARCOS     PTCLDY    75  70  83 SE6       29.95S HAZE
NEW BRAUNFELS  MOCLDY    77  74  90 S6        29.93R
RANDOLPH AFB   PTCLDY    77  73  88 S8        29.94S
SAN ANTONIO    CLOUDY    79  74  84 S8        29.94R
STINSON        CLOUDY    77  75  93 SE5       29.92R
PLEASANTON     NOT AVBL
LA GRANGE      CLOUDY    79  78  97 CALM      29.93R FOG
GIDDINGS       CLOUDY    76  75  96 S3        29.98S FOG
$$

EAST TEXAS

CITY           SKY/WX    TMP DP  RH WIND       PRES   REMARKS
PARIS          CLOUDY    75  66  73 S12       29.94R
CLARKSVILLE    NOT AVBL
TYLER          CLOUDY    77  73  87 S10       29.96R
LONGVIEW       MOCLDY    77  73  87 S8        29.96R
PALESTINE      CLOUDY    77  75  93 S7        29.97S
NACOGDOCHES    CLOUDY    77  73  88 S6        29.98S
$$

TEXAS HILL COUNTRY AND EDWARDS PLATEAU

CITY           SKY/WX    TMP DP  RH WIND       PRES   REMARKS
LLANO          SUNNY     77  70  78 S6        29.97R
HORSESHOE BAY  FAIR      76  70  82 CALM      29.94S
KERRVILLE      PTCLDY    74  70  88 S9        29.97R
FREDERICKSBRG  CLOUDY    74  68  81 S7        29.97R
ROCKSPRINGS    MOSUNNY   72  70  94 SE12      29.99S
HONDO          CLOUDY    78  74  87 SE6       29.95S
UVALDE         PTSUNNY   75  74  95 E6        29.93S
DEL RIO        CLEAR     79  71  76 E9        29.89R
$$

SOUTHEAST TEXAS

CITY           SKY/WX    TMP DP  RH WIND       PRES   REMARKS
COLLEGE STN    CLOUDY    76  75  97 S7        29.95S FOG
CALDWELL       CLOUDY    77  77 100 SE5       29.98R
CROCKETT       NOT AVBL
BRENHAM        FOG       76  75  96 CALM      29.96R VSB 3/4
HUNTSVILLE     CLOUDY    77  75  93 VRB3      29.97R
CONROE         FOG       74  74 100 CALM      29.97R VSB 1/4
HOUSTON BUSH   PTCLDY    73  73 100 CALM      29.95R
HOUSTON HOBBY  PTCLDY    77  75  93 SE3       29.94S
PERLAND        CLEAR     76  73  91 E3        29.95S FOG
WHARTON        SUNNY     73  73  97 CALM      29.95R FOG
$$

THE UPPER TEXAS COAST

CITY           SKY/WX    TMP DP  RH WIND       PRES   REMARKS
ORANGE         SUNNY     78  78 100 E3        29.98S
PORT ARTHUR    PTCLDY    78  75  90 SE5       29.96S
GALVESTON      PTCLDY    82  77  84 S8        29.95R
ANGLETON       PTCLDY    75  74  96 CALM      29.94S
BAY CITY       SUNNY     76  76 100 E3        29.94R
$$

TEXAS COASTAL BEND, RIO GRANDE PLAINS DEEP SOUTH TEXAS

CITY           SKY/WX    TMP DP  RH WIND       PRES   REMARKS
VICTORIA       PTCLDY    78  76  93 E5        29.93R FOG
BEEVILLE       FAIR      76  76 100 E3        29.92R FOG
ROCKPORT       PTCLDY    82  77  84 SE5       29.91R
PORT ARANSAS   LGT RAIN  82  77  84 S7        29.90R
PORT LAVACA    NOT AVBL
CORPUS CHRISTI PTCLDY    78  77  96 SE5       29.90R
KINGSVILLE NAS CLOUDY    77  77 100 E5        29.90R
COTULLA        CLEAR     77  73  87 SE8       29.90S
LAREDO         CLEAR     79  74  84 E7        29.91R
BROWNSVILLE    PTCLDY    79  78  97 SE3       29.88R
PORT ISABEL    CLEAR     82  78  88 SE5       29.88R
HEBBRONVILLE   PTSUNNY   77  75  93 SE6       29.91S
MCALLEN        CLEAR     78  77  96 SE5       29.89R
WESLACO        NOT AVBL
FALFURRIAS     CLOUDY    67  66  94 CALM      29.89R VSB 1
EDINBURG       MOSUNNY   79  76  90 SE3       29.89R FOG
$$



USA.gov is the U.S. government's official web portal to all federal, state and local government web resources and services.